Home   Weather   Firenze   Past weeks
Flag for Italy

Past Weather in Firenze, Italy — Yesterday and Last 2 Weeks

Now
59 °F

Sunny.


Feels Like: 59 °F
Forecast: 75 / 61 °F
Wind: 2 mph from North

Location: Florence / Peretola

Current Time: Oct 23, 2019 at 9:57:17 am

Latest Report: Oct 23, 2019 at 9:20 am


Visibility: 10 mi

Pressure: 30.12 "Hg

Humidity: 94%

Dew Point: 57 °F

Location of FirenzeLocation

Past Weather in Firenze — Graph

°F

Firenze Temperature Yesterday

Maximum temperature yesterday: 82 °F (at 3:20 pm)
Minimum temperature yesterday: 54 °F (at 6:50 am)
Average temperature yesterday: 66 °F

High & Low Weather Summary for the Past Weeks

 TemperatureHumidityPressure
High82 °F (Oct 22, 3:20 pm)100% (Oct 9, 4:20 am)30.27 "Hg (Oct 9, 4:20 am)
Low46 °F (Oct 11, 5:50 am)33% (Oct 8, 6:20 pm)29.83 "Hg (Oct 15, 5:20 pm)
Average64 °F79%30.10 "Hg
* Reported Oct 8 8:20 am — Oct 23 8:20 am, Firenze. Weather by CustomWeather, © 2019

Note: Actual official high and low records may vary slightly from our data, if they occured in-between our weather recording intervals... More about our weather records

Advertising

Firenze Weather History for the Previous 24 Hours

Scroll right to see more
 ConditionsComfort  
Time TempWeatherWind HumidityBarometerVisibility
8:20 am
Wed, Oct 23
55 °FSunny.2 mph100%30.12 "Hg10 mi
7:50 am55 °FFog.1 mph100%30.12 "HgN/A
7:20 am54 °FClear.1 mph100%30.09 "Hg10 mi
6:50 am54 °FClear.1 mph100%30.12 "Hg10 mi
6:20 am54 °FClear.1 mph100%30.12 "Hg10 mi
5:50 am54 °FClear.2 mph94%30.12 "Hg10 mi
5:20 am55 °FClear.2 mph100%30.09 "Hg10 mi
4:50 am55 °FClear.3 mph100%30.09 "Hg10 mi
4:20 am57 °FClear.1 mph100%30.09 "Hg10 mi
3:50 am55 °FClear.1 mph100%30.09 "Hg10 mi
3:20 am57 °FClear.1 mph100%30.09 "Hg10 mi
2:50 am57 °FClear.3 mph100%30.09 "Hg10 mi
2:20 am55 °FClear.1 mph100%30.12 "Hg10 mi
1:50 am55 °FClear.1 mph100%30.12 "Hg10 mi
1:20 am57 °FClear.1 mph94%30.12 "Hg10 mi
12:50 am59 °FClear.1 mph100%30.12 "Hg10 mi
12:20 am59 °FClear.1 mph100%30.12 "Hg10 mi
11:50 pm
Tue, Oct 22
59 °FClear.1 mph100%30.12 "Hg10 mi
11:20 pm59 °FClear.2 mph100%30.12 "Hg10 mi
10:50 pm59 °FClear.2 mph94%30.12 "Hg10 mi
10:20 pm61 °FClear.2 mph88%30.12 "Hg10 mi
9:50 pm63 °FClear.1 mph88%30.12 "Hg10 mi
9:20 pm66 °FClear.2 mph83%30.12 "Hg10 mi
8:50 pm66 °FClear.1 mph83%30.09 "Hg10 mi
8:20 pm68 °FClear.5 mph83%30.09 "Hg10 mi
7:50 pm70 °FClear.6 mph78%30.09 "Hg10 mi
7:20 pm72 °FClear.5 mph73%30.09 "Hg10 mi
6:50 pm73 °FClear.2 mph69%30.09 "Hg10 mi
6:20 pm73 °FPassing clouds.3 mph69%30.09 "HgN/A
5:50 pm77 °FSunny.5 mph61%30.09 "Hg10 mi
5:20 pm81 °FSunny.3 mph51%30.09 "Hg10 mi
4:50 pm82 °FSunny.3 mph48%30.09 "Hg10 mi
4:20 pm82 °FPassing clouds.5 mph48%30.09 "HgN/A
3:50 pm82 °FSunny.1 mph45%30.09 "Hg10 mi
3:20 pm82 °FSunny.1 mph45%30.09 "Hg10 mi
2:50 pm81 °FSunny.2 mph48%30.09 "Hg10 mi
2:20 pm81 °FSunny.2 mph54%30.12 "Hg10 mi
1:50 pm79 °FSunny.2 mph58%30.12 "Hg10 mi
1:20 pm77 °FPassing clouds.3 mph61%30.15 "HgN/A
12:50 pm75 °FSunny.1 mph65%30.15 "Hg10 mi
12:20 pm73 °FPassing clouds.3 mph65%30.18 "HgN/A
11:50 am72 °FSunny.2 mph69%30.18 "Hg10 mi
11:20 am70 °FSunny.2 mph73%30.18 "Hg10 mi
10:50 am66 °FSunny.1 mph83%30.18 "Hg10 mi
10:20 am64 °FSunny.1 mph88%30.18 "Hg10 mi
9:50 am63 °FSunny.1 mph88%30.18 "Hg10 mi
9:20 am59 °FSunny.2 mph100%30.18 "Hg10 mi
Weather by CustomWeather, © 2019

See weather overview